CAPE
1066 1285 1322 1379 1466 1424 1432 1426 1432 1413 1408 1394 1400 1378 1366 1354 1327 1309 1273 1376 1608 1726 1828 1872 1892 1873 1870 1873 1915 2035 2164 2279 2209 2054 1833 1564 1156 867 912 910 787 625 0 0 0 0 0 0 0 0 0 0 0 0 0 0 0 0 0 0 0 0 0 0 0 0 0 0 0 49 18 72 397 229 516 339 376 327 409 622 518 346 238 241 160
996 1219 1364 1386 1438 1474 1464 1458 1453 1441 1431 1429 1416 1424 1418 1412 1396 1345 1281 1268 1420 1616 1735 1813 1825 1822 1792 1792 1824 1935 2051 2129 2038 1878 1715 1510 1230 1000 972 947 858 761 36 0 0 2 5 4 1 0 0 0 0 0 0 0 0 0 0 0 0 0 0 0 0 2 75 0 0 1 7 20 474 117 376 599 502 333 365 248 135 112 260 250 197
956 1168 1325 1399 1440 1491 1504 1503 1494 1494 1478 1463 1464 1459 1469 1475 1445 1394 1315 1233 1317 1455 1587 1681 1730 1738 1729 1729 1776 1830 1931 1986 1923 1756 1573 1409 1235 1067 954 909 881 867 704 0 0 0 5 18 15 0 0 0 0 0 0 1 2 6 5 2 4 2 0 10 11 5 33 84 60 111 133 105 387 683 241 173 418 342 316 559 510 239 233 204 187
971 1096 1258 1401 1433 1481 1518 1533 1539 1540 1529 1520 1505 1494 1490 1489 1490 1455 1385 1300 1280 1356 1437 1525 1595 1629 1653 1679 1703 1749 1820 1869 1837 1710 1559 1420 1280 1144 992 862 819 836 789 299 0 0 13 20 24 2 4 0 0 0 0 1 12 15 18 14 26 16 4 1 33 184 111 204 45 119 92 147 187 92 83 227 186 317 400 507 162 270 338 184 123
1042 1098 1186 1318 1426 1527 1541 1557 1573 1577 1580 1571 1558 1538 1526 1511 1506 1512 1477 1415 1347 1337 1392 1441 1495 1540 1587 1631 1655 1703 1753 1789 1773 1714 1594 1468 1342 1229 1123 968 813 728 678 613 306 2 20 40 44 11 10 31 13 0 0 0 6 21 32 32 44 64 58 37 72 87 166 193 288 80 133 158 191 111 104 288 392 236 114 198 264 280 314 138 39
1099 1184 1218 1275 1384 1494 1562 1589 1605 1620 1625 1620 1611 1597 1576 1552 1529 1526 1525 1517 1486 1432 1428 1455 1473 1508 1547 1578 1604 1633 1675 1703 1728 1707 1644 1518 1388 1286 1237 1205 1058 776 583 532 517 498 102 110 50 14 13 40 49 24 5 1 1 21 48 61 121 116 97 82 147 186 134 344 247 297 189 232 242 215 184 221 315 443 439 386 154 163 200 172 75
1212 1256 1347 1355 1432 1448 1534 1598 1627 1650 1667 1672 1661 1652 1644 1634 1602 1583 1562 1568 1545 1515 1494 1484 1483 1484 1509 1525 1541 1568 1618 1641 1659 1666 1655 1606 1462 1314 1246 1224 1181 1064 830 614 542 560 610 605 520 458 311 34 51 30 9 8 5 26 64 100 111 168 125 144 178 217 238 244 201 199 223 256 245 273 162 115 130 177 314 489 484 337 148 161 190
1265 1332 1438 1506 1542 1548 1516 1552 1610 1650 1682 1710 1718 1713 1710 1695 1686 1659 1634 1602 1578 1542 1521 1496 1495 1482 1486 1494 1509 1534 1567 1584 1605 1632 1673 1651 1537 1388 1305 1293 1244 1131 1012 842 670 636 722 808 711 602 584 423 36 31 76 32 38 62 75 80 87 91 129 169 206 204 194 184 157 156 165 210 209 198 172 165 160 169 185 343 436 422 358 194 118
1346 1406 1490 1587 1650 1674 1655 1626 1577 1628 1671 1717 1750 1766 1761 1762 1754 1736 1710 1694 1662 1631 1580 1537 1516 1512 1518 1521 1519 1524 1536 1556 1588 1664 1717 1672 1551 1439 1374 1376 1368 1309 1184 1006 851 819 838 893 856 769 728 684 476 329 334 191 64 111 112 115 149 95 128 165 205 208 154 157 215 262 347 348 321 268 238 222 232 362 200 184 279 316 267 145 64
1405 1460 1529 1616 1686 1733 1791 1795 1771 1649 1662 1698 1748 1778 1789 1804 1817 1810 1800 1774 1758 1723 1673 1638 1613 1590 1579 1574 1566 1561 1570 1613 1671 1736 1740 1662 1546 1451 1412 1416 1446 1478 1402 1208 1052 1022 1012 1016 990 939 914 861 770 466 371 235 160 91 129 136 163 77 101 151 193 228 272 289 277 322 421 467 430 359 265 184 198 168 111 120 176 250 193 35 33
1432 1513 1596 1654 1686 1760 1836 1904 1915 1881 1851 1818 1744 1763 1795 1831 1898 1868 1859 1845 1824 1800 1763 1747 1723 1683 1653 1633 1625 1642 1664 1700 1744 1766 1762 1690 1580 1477 1445 1459 1510 1587 1546 1405 1271 1218 1183 1158 1028 974 1093 972 800 564 587 311 213 106 44 60 91 159 171 134 186 277 305 447 472 336 412 422 340 174 133 152 167 275 181 112 119 121 178 92 58
1458 1564 1644 1692 1734 1806 1884 1958 2009 2030 1994 1967 1925 1900 1914 1936 1951 1927 1904 1895 1883 1862 1854 1834 1803 1760 1733 1720 1696 1672 1675 1717 1748 1750 1744 1691 1611 1549 1516 1538 1594 1666 1652 1623 1546 1460 1402 1293 1308 1298 1277 1090 849 678 510 322 176 179 106 13 2 60 102 234 302 412 337 404 409 427 413 361 274 173 165 182 224 162 137 116 82 92 62 5 26
1531 1642 1712 1775 1840 1884 1943 2012 2072 2110 2112 2095 2061 2027 2018 1999 1993 1927 1940 1942 1940 1924 1915 1904 1878 1836 1795 1769 1754 1733 1712 1734 1741 1738 1711 1694 1654 1615 1600 1614 1655 1688 1694 1727 1714 1682 1660 1616 1570 1497 1404 1012 827 805 661 758 294 105 191 189 55 70 115 254 386 564 530 515 582 533 401 252 186 125 164 224 150 209 213 182 155 87 4 38 154
1628 1732 1818 1881 1959 2009 2048 2084 2133 2165 2186 2184 2179 2178 2137 2108 2012 1989 1980 1971 1974 1980 1976 1974 1953 1922 1891 1853 1814 1762 1764 1767 1758 1735 1716 1703 1682 1656 1664 1703 1702 1739 1794 1808 1779 1768 1731 1704 1603 1467 1539 1305 1057 836 836 779 778 632 409 463 558 365 236 333 410 437 536 664 722 650 208 54 101 192 366 319 231 234 187 192 84 0 8 54 113
1702 1822 1924 2002 2079 2152 2188 2203 2221 2239 2253 2268 2285 2296 2271 2166 2124 2088 2047 2038 2038 2033 2032 2026 2013 1993 1962 1940 1878 1837 1807 1788 1784 1770 1766 1747 1713 1691 1721 1743 1758 1836 1896 1827 1806 1828 1830 1800 1651 1598 1638 1520 1285 1093 814 746 432 612 662 570 507 486 380 73 319 522 644 716 578 245 55 68 275 305 217 219 173 144 168 50 28 35 36 0 1
1741 1895 2028 2131 2222 2287 2328 2340 2348 2354 2346 2356 2378 2383 2301 2280 2255 2202 2152 2133 2114 2100 2085 2065 2062 2044 2023 1991 1955 1908 1869 1837 1827 1828 1827 1816 1790 1780 1821 1867 1937 1973 1912 1918 1898 1826 1750 1843 1880 1746 1706 1677 1372 1008 810 656 450 382 554 524 224 421 370 563 647 665 630 537 373 172 308 289 274 129 92 213 286 158 3 7 0 0 16 109 187
1715 1912 2074 2212 2328 2405 2441 2448 2435 2452 2454 2440 2450 2442 2383 2373 2352 2307 2262 2232 2201 2176 2144 2116 2102 2089 2066 2032 2019 1967 1930 1907 1908 1911 1920 1895 1856 1880 1952 2013 2034 2014 2024 2016 1877 1694 1660 1948 2074 1912 1832 1735 1238 1040 924 717 637 407 340 221 10 337 547 532 532 488 495 424 205 165 197 310 327 356 335 229 164 3 3 6 25 0 26 27 27
1699 1886 2068 2221 2380 2480 2544 2562 2536 2506 2497 2474 2470 2467 2453 2440 2429 2396 2375 2332 2289 2270 2238 2198 2153 2124 2087 2074 2050 2032 2003 1955 1954 1969 1975 1937 1943 1997 2049 2091 2106 2097 2200 2166 1977 1890 2000 2167 2108 1946 1783 1633 1266 910 937 848 713 626 475 487 50 34 159 415 474 488 388 92 57 152 188 119 219 227 137 0 0 0 8 69 56 0 11 24 38
1661 1843 2039 2201 2344 2467 2566 2650 2664 2582 2582 2579 2552 2534 2520 2524 2494 2464 2445 2413 2389 2339 2304 2281 2230 2182 2138 2123 2086 2068 2030 2001 1993 2004 2002 1991 2021 2072 2096 2148 2193 2267 2319 2308 2265 2250 2307 2282 2210 2021 1829 1671 1261 1053 903 773 653 566 513 437 421 378 281 436 453 221 0 0 0 104 206 264 160 85 0 0 0 0 17 75 0 0 29 80 69
1679 1800 1924 2093 2275 2406 2531 2652 2711 2660 2657 2648 2618 2608 2589 2552 2546 2528 2509 2473 2449 2415 2363 2315 2280 2253 2198 2183 2090 2055 2048 2041 2040 2044 2039 2053 2100 2138 2173 2247 2379 2450 2442 2443 2404 2434 2466 2411 2227 2022 1951 1743 1375 1058 918 764 602 538 288 400 29 3 0 17 0 0 0 0 100 108 132 121 92 0 0 0 0 0 0 0 0 4 61 111 30
1748 1796 1865 1952 2155 2366 2492 2620 2704 2677 2682 2683 2668 2656 2621 2590 2587 2561 2551 2512 2483 2469 2440 2388 2354 2316 2260 2207 2145 2095 2082 2092 2107 2087 2089 2123 2171 2222 2297 2401 2502 2547 2659 2836 2863 2814 2662 2430 2147 2006 1935 1746 1371 1067 823 712 610 500 467 391 256 167 0 0 0 0 0 120 156 158 124 74 0 0 0 0 0 0 0 0 0 0 53 10 0
1799 1812 1836 1872 2061 2260 2443 2626 2707 2712 2666 2643 2690 2688 2656 2620 2612 2604 2576 2531 2500 2500 2504 2468 2441 2401 2369 2312 2222 2188 2202 2165 2188 2166 2178 2201 2254 2345 2459 2578 2644 2844 3044 3189 3236 3084 2748 2321 2051 1924 1819 1586 1349 1058 802 633 504 408 342 2 0 0 0 0 0 0 171 240 186 122 93 0 0 0 0 0 0 0 0 0 0 0 0 0 0
1880 1864 1857 1881 1940 2160 2362 2493 2618 2720 2738 2671 2687 2684 2671 2657 2672 2659 2626 2561 2536 2524 2515 2522 2520 2507 2477 2407 2356 2331 2311 2296 2282 2299 2308 2328 2412 2505 2614 2715 3006 3196 3264 3357 3267 3108 2662 2204 1980 1778 1414 1158 1037 856 658 550 476 276 0 0 0 0 0 0 0 96 294 265 131 83 0 0 0 0 0 0 0 0 0 0 0 0 0 0 0
2103 2052 2014 1982 1975 2095 2216 2376 2521 2695 2762 2771 2773 2771 2728 2689 2694 2684 2652 2611 2586 2582 2575 2597 2549 2561 2546 2508 2465 2464 2419 2397 2411 2442 2463 2511 2576 2669 2736 3061 3323 3404 3430 3163 3004 2758 2376 2058 1730 1400 1121 940 778 645 523 408 343 158 0 0 0 0 0 0 35 250 265 184 117 10 0 0 0 0 0 0 0 0 0 0 0 0 0 0 0
2332 2366 2287 2245 2181 2113 2124 2335 2472 2620 2762 2770 2803 2824 2820 2761 2714 2710 2710 2652 2607 2588 2592 2597 2594 2604 2580 2558 2529 2512 2493 2491 2522 2544 2571 2625 2708 2767 3020 3234 3501 3508 3206 2927 2611 2265 1894 1564 1301 1175 1016 868 687 492 336 0 0 0 0 0 0 0 324 381 309 296 230 72 0 0 0 0 0 0 0 0 0 0 0 0 0 0 0 0 0
2850 2798 2747 2703 2709 2650 2588 2448 2313 2524 2673 2741 2803 2836 2824 2782 2741 2746 2725 2714 2743 2723 2704 2686 2649 2652 2657 2652 2592 2555 2524 2542 2564 2582 2655 2729 2830 2944 3185 3500 3588 3382 2984 2614 2137 1832 1552 1303 1144 1009 886 740 551 355 0 0 0 0 0 166 410 442 390 306 252 104 0 0 0 0 0 0 0 0 0 0 0 0 0 0 0 0 0 0 0
3376 3281 3227 3204 3144 2988 2888 2756 2696 2603 2481 2608 2678 2757 2822 2793 2776 2765 2744 2808 2843 2852 2786 2737 2712 2719 2683 2698 2644 2558 2527 2537 2570 2653 2724 2831 2971 3269 3480 3619 3394 3040 2816 2616 2055 1583 1375 1158 1010 872 714 547 410 210 0 0 0 41 313 37 119 172 149 137 0 0 0 0 0 0 0 0 0 0 0 0 0 0 0 0 0 0 0 0 0
3416 3598 3554 3416 3311 3253 3222 3156 3035 2889 2701 2532 2683 2727 2764 2785 2770 2779 2810 2820 2816 2809 2815 2771 2722 2751 2774 2722 2657 2579 2531 2577 2636 2648 2774 2967 3231 3509 3571 3442 3135 2912 2688 2251 1707 1422 1241 1076 897 734 576 450 226 0 0 0 239 392 0 0 0 0 0 0 0 0 0 0 0 0 0 0 0 0 0 0 0 0 0 0 0 0 0 0 0
3004 3349 3538 3624 3586 3461 3392 3342 3269 3215 3099 2963 2770 2703 2738 2737 2771 2819 2814 2822 2803 2799 2810 2795 2800 2781 2793 2674 2641 2632 2574 2644 2701 2688 2863 3122 3424 3566 3383 3150 3079 3012 2512 1907 1593 1390 1201 1034 829 595 465 374 25 0 0 41 364 156 0 0 0 0 0 0 0 0 0 0 0 0 0 0 0 0 0 0 0 0 0 0 0 0 0 0 0
1906 2440 2993 3353 3453 3553 3647 3638 3580 3510 3415 3328 3206 3131 2913 2759 2738 2784 2796 2815 2809 2807 2764 2700 2727 2748 2691 2712 2698 2603 2583 2666 2734 2801 2999 3303 3572 3447 3255 3244 2974 2220 1810 1602 1461 1239 1037 863 679 558 324 0 0 0 0 0 0 0 0 150 0 0 0 0 0 0 0 0 0 0 0 0 0 0 0 0 0 0 3 0 0 0 0 0 0
1416 1627 1828 2171 2636 3048 3314 3414 3434 3411 3315 3102 3009 3032 3035 3033 3004 2904 2808 2753 2759 2751 2727 2697 2678 2598 2577 2623 2735 2770 2714 2616 2758 3074 3160 3249 3337 3350 3162 2131 1763 1543 1420 1306 1076 960 882 658 494 347 6 0 0 0 0 0 0 0 0 0 0 0 0 0 0 0 0 0 0 0 0 0 0 0 0 0 0 2 0 0 0 0 0 0 0
1085 1205 1381 1640 1793 1936 2141 2434 2703 3005 3250 3174 3044 2912 2865 2852 2951 2888 2907 2843 2789 2690 2684 2644 2586 2662 2633 2650 2565 2414 2496 2588 2756 2907 2949 3113 3145 3140 1868 1271 1223 1168 1083 920 790 694 628 497 50 0 0 0 0 0 0 0 0 0 0 0 0 0 0 0 0 0 0 0 0 0 0 0 0 0 0 0 1 1 0 0 0 0 0 0 0
725 727 741 863 1077 1301 1497 1803 2003 2194 2338 2505 2727 2848 2678 2686 2732 2918 2738 2721 2688 2657 2690 2659 2625 2667 2705 2720 2226 2244 2097 2267 2554 2546 2550 3018 2918 1338 836 772 788 732 683 668 585 506 401 0 0 0 0 0 0 0 0 0 0 0 0 0 0 0 0 0 0 0 0 0 0 0 0 0 0 0 0 0 0 0 0 0 0 0 0 0 0
521 437 418 441 510 613 634 657 706 933 1230 1614 1906 2076 2246 2518 2256 2011 2265 2685 2636 2579 2558 2542 2604 2633 2576 2297 2175 2285 2380 2145 1821 1903 1968 1912 484 280 367 457 527 556 555 433 109 0 0 0 0 0 0 0 0 0 0 0 0 0 0 0 0 0 0 0 0 0 0 0 0 0 0 0 0 0 0 0 0 0 0 0 0 0 0 0 0
496 427 403 274 8 237 534 588 553 430 345 315 174 258 806 1473 1773 997 623 1212 2234 2367 2331 2402 2440 2588 2205 2095 2277 2303 2160 1750 1653 942 555 286 143 140 0 0 223 0 0 0 0 0 0 0 0 0 0 0 0 0 0 0 0 0 0 0 0 0 0 0 0 0 0 0 0 0 0 0 0 0 0 0 0 0 0 0 0 0 0 0 0
530 526 600 441 30 8 1 46 43 45 0 0 0 0 0 0 0 1 110 131 410 1385 2078 2264 2528 2197 1951 1793 1855 2035 2012 1597 640 228 52 0 8 0 0 0 0 0 0 0 0 0 0 0 0 0 0 0 0 0 0 0 0 0 0 0 0 0 0 0 0 0 0 0 0 0 0 0 0 0 0 0 0 0 0 0 0 0 0 0 0
583 437 434 540 490 0 0 0 0 0 0 0 0 0 0 0 0 0 54 126 208 868 1568 1894 1701 1202 1122 1510 1500 1387 994 96 0 0 0 0 0 0 0 0 0 0 0 0 0 0 0 0 0 0 0 0 0 0 0 0 0 0 0 0 0 0 0 0 0 0 0 0 0 0 0 0 0 0 0 0 0 0 0 0 0 0 0 0 0
748 557 421 422 578 810 778 566 0 0 0 0 0 0 0 0 0 0 0 34 20 19 988 921 822 779 1143 1105 510 199 0 0 0 0 0 0 0 0 0 0 0 0 0 0 0 0 0 0 0 0 0 0 0 0 0 0 0 0 0 0 0 0 0 0 0 0 0 0 0 0 0 0 0 0 0 0 0 0 0 0 0 0 0 0 0
789 790 745 651 700 933 1076 962 615 0 0 0 0 0 0 0 0 0 27 74 48 2 38 120 577 690 519 241 193 178 0 0 29 101 81 0 175 158 204 120 0 0 0 0 0 0 0 0 0 1 9 6 0 0 0 0 0 0 0 0 0 0 0 0 0 0 0 0 0 0 0 0 0 0 0 0 0 0 0 0 0 0 0 0 0
775 793 790 773 860 994 1072 1023 832 96 0 0 0 0 40 47 29 29 79 134 170 158 120 199 233 298 321 294 211 114 115 159 224 220 202 176 182 67 7 0 0 0 0 0 0 0 0 0 4 18 22 0 0 0 0 0 0 0 0 0 0 0 0 0 0 0 0 0 0 0 0 0 0 0 0 0 0 0 0 0 0 0 0 0 0
788 807 819 765 739 762 825 888 822 412 226 158 109 106 110 64 94 120 230 224 235 279 269 218 202 211 216 188 164 187 170 111 86 71 101 106 64 50 32 0 0 0 0 0 0 0 0 6 47 48 0 0 0 0 0 0 0 0 0 0 0 0 0 0 0 0 0 0 0 0 0 0 0 0 0 0 0 0 0 0 0 0 0 0 0
857 896 861 853 772 749 716 746 832 732 475 351 333 291 322 258 235 339 237 192 229 236 255 302 322 339 296 257 242 180 86 27 0 0 0 0 0 0 0 0 0 18 0 0 0 0 4 29 37 0 0 0 0 0 0 0 0 0 0 0 0 0 0 0 0 0 0 0 0 0 0 0 0 0 0 0 0 0 0 0 0 0 0 0 0
941 931 1099 970 906 789 772 701 728 826 747 582 486 432 418 384 471 488 408 346 303 284 267 241 248 257 253 204 152 114 64 0 8 0 0 0 0 0 0 0 0 0 0 0 0 0 0 0 0 0 0 0 0 0 0 0 0 0 0 0 0 0 0 0 0 0 0 0 0 0 0 0 0 0 0 0 0 0 0 0 0 0 0 0 0
860 1035 1049 978 952 763 745 694 693 756 719 716 580 571 427 450 462 413 447 451 414 379 337 293 255 243 213 150 126 99 114 86 61 0 85 94 75 133 86 20 0 0 0 0 0 0 0 0 0 0 0 0 0 0 0 0 0 0 0 0 0 0 0 0 0 0 0 0 0 0 0 0 0 0 0 0 0 0 0 0 0 0 0 0 0
567 639 598 578 767 758 686 670 643 638 710 669 742 637 604 445 393 380 334 318 288 253 239 272 282 271 287 262 254 272 232 178 182 131 38 73 80 94 80 54 0 0 0 0 0 0 0 0 0 0 0 0 0 0 0 0 0 0 0 0 0 0 0 0 0 0 0 0 0 0 0 0 0 0 0 0 0 0 0 0 0 0 0 0 0
248 313 233 336 412 545 663 670 610 694 606 707 619 630 707 599 524 482 397 373 331 304 265 259 250 309 313 357 344 316 264 236 219 114 65 63 70 94 104 106 94 29 0 0 0 0 0 0 0 0 0 0 0 0 0 0 0 0 0 0 0 0 0 0 0 0 0 0 0 0 0 0 0 0 0 0 0 0 0 0 0 0 0 0 0
411 274 258 256 103 105 239 412 608 598 518 690 621 633 582 548 530 488 452 401 320 262 226 240 242 210 229 210 262 259 181 161 159 158 127 131 138 148 135 126 103 0 0 0 0 0 0 0 0 0 0 0 0 0 0 0 0 0 0 0 0 0 0 0 0 0 0 0 0 0 0 0 0 0 0 0 0 0 0 0 0 0 0 0 0
289 257 241 146 104 71 51 92 203 358 408 448 618 652 572 542 525 542 506 478 408 288 224 234 273 320 365 317 200 108 187 216 185 177 160 194 193 143 123 21 0 0 0 0 0 0 0 0 0 0 0 0 0 0 0 0 0 0 0 0 0 0 0 0 0 0 0 0 0 0 0 0 0 0 0 0 0 0 0 0 0 0 0 0 0
65 82 100 108 166 118 81 50 42 82 173 249 393 512 574 596 652 639 616 572 540 436 241 154 175 284 396 422 404 296 251 219 215 178 216 174 156 133 48 0 0 0 0 0 0 0 0 0 0 0 0 0 0 0 0 0 0 0 0 0 0 0 0 0 0 0 0 0 0 0 0 0 0 0 0 0 0 0 0 0 0 0 0 0 0
0 0 0 32 32 47 70 64 85 71 48 68 95 127 264 294 459 472 529 491 414 347 71 28 70 196 320 422 410 253 277 297 278 231 179 166 135 17 0 0 0 0 0 0 0 0 0 0 0 0 0 0 0 0 0 0 0 0 0 0 0 0 0 0 0 0 0 0 0 0 0 0 0 0 0 0 0 0 0 0 0 0 0 0 0
0 0 0 0 0 0 0 54 86 83 84 94 91 91 108 131 232 322 320 340 443 271 48 13 2 135 277 383 393 347 302 239 218 216 193 137 78 0 0 0 0 0 0 0 0 0 0 0 0 0 0 0 0 0 0 0 0 0 0 0 0 0 0 0 0 0 0 0 0 0 0 0 0 0 0 0 0 0 0 0 0 0 0 0 0
Wind_Speed
15 14 14 13 14 14 14 14 15 16 17 18 19 19 21 22 21 20 21 18 19 19 18 17 17 18 17 14 12 10 9 8 8 10 12 13 15 17 19 22 23 22 nan nan nan nan nan nan nan nan nan nan nan nan nan nan nan nan nan nan nan nan nan nan nan nan nan nan nan nan nan nan 26 27 23 22 21 22 23 23 23 24 25 27 27
14 14 14 14 15 15 15 15 15 16 16 18 18 20 21 23 24 24 20 19 19 18 18 18 17 18 17 15 13 12 10 9 9 10 11 13 14 15 18 20 21 22 nan nan nan nan nan nan nan nan nan nan nan nan nan nan nan nan nan nan nan nan nan nan nan nan nan nan nan nan nan nan 27 29 26 23 20 22 21 22 23 24 25 27 28
14 15 15 15 16 15 16 15 16 16 16 16 18 21 23 24 26 24 21 20 19 17 18 19 18 18 17 15 14 12 11 11 10 11 11 14 15 16 17 19 20 22 24 nan nan nan nan nan nan nan nan nan nan nan nan nan nan nan nan nan nan nan nan nan nan nan nan nan nan 27 28 31 31 28 27 24 22 23 23 24 26 26 27 26 27
16 16 16 16 16 16 16 16 17 16 15 14 16 19 22 24 25 23 21 21 20 18 18 18 18 18 17 16 14 13 12 12 11 11 12 13 15 18 19 19 19 21 24 25 nan nan nan nan nan nan nan nan nan nan nan nan nan nan nan nan nan nan nan nan nan 26 27 27 nan 30 nan 32 31 nan nan 26 24 24 25 27 28 27 28 29 28
17 17 17 17 17 17 18 18 17 17 15 13 14 17 19 21 23 23 22 20 20 19 18 18 17 17 16 15 15 14 13 13 12 11 11 12 15 17 19 19 20 22 24 26 27 nan nan nan nan nan nan nan nan nan nan nan nan nan nan nan nan nan nan nan nan nan 25 26 29 nan 31 30 32 31 30 29 29 28 29 29 29 29 28 29 nan
16 17 17 17 17 18 19 19 20 19 17 14 14 15 17 18 20 22 22 20 20 19 19 18 17 15 15 15 15 14 14 14 14 13 12 13 15 16 17 18 20 22 24 26 29 30 31 30 nan nan nan nan nan nan nan nan nan nan nan nan 26 26 nan nan 23 24 25 25 28 30 34 33 32 32 33 33 32 32 31 30 31 33 31 29 nan
17 17 18 18 17 18 20 20 20 19 18 17 16 16 17 18 20 21 22 21 21 20 19 18 17 15 15 16 15 15 14 14 14 14 14 14 16 17 18 19 21 22 24 27 30 31 32 32 32 31 28 nan nan nan nan nan nan nan nan 28 28 29 28 27 27 27 27 26 29 31 31 34 35 32 36 36 36 36 34 31 30 34 33 30 29
16 16 17 17 17 19 20 20 20 20 19 19 19 19 18 19 20 21 22 22 20 19 19 18 17 17 16 16 15 16 14 14 15 15 15 16 17 18 19 20 21 22 25 27 30 31 33 34 35 33 28 27 nan nan nan nan nan nan nan nan nan nan 31 30 31 31 30 29 30 32 35 34 37 38 38 36 34 35 38 34 27 27 29 30 30
17 17 18 17 18 19 20 20 20 20 21 21 21 21 20 20 21 22 22 21 21 20 20 19 19 17 16 16 16 16 14 14 15 17 17 18 18 19 20 20 21 23 25 26 28 30 32 34 35 32 27 26 28 28 27 28 nan 28 29 31 32 nan 33 33 34 35 33 31 31 34 35 37 38 39 38 39 38 35 39 37 33 31 30 28 nan
19 18 18 17 18 20 21 22 22 23 23 23 23 24 23 22 22 22 23 22 22 22 21 20 19 18 17 17 17 16 14 14 16 20 21 20 21 20 19 19 21 23 25 25 26 28 30 31 32 33 31 29 29 30 30 32 33 nan 32 33 34 nan 35 35 36 36 36 34 34 37 37 36 38 41 39 39 39 40 39 39 36 33 32 nan nan
19 18 17 17 20 22 23 22 23 23 24 24 25 27 27 25 24 24 23 23 23 23 23 21 20 20 20 19 18 16 14 14 18 22 23 25 23 22 21 20 20 21 23 24 24 26 26 28 29 31 32 30 28 29 30 34 35 35 nan nan nan 37 36 36 36 38 38 35 36 40 39 35 35 41 43 43 40 41 38 37 34 34 36 nan nan
18 16 16 18 22 24 23 24 24 24 25 26 28 29 29 29 28 28 26 24 23 24 23 22 22 22 22 21 19 16 14 14 19 23 25 27 27 25 22 20 20 22 24 24 22 24 25 26 31 32 33 36 28 23 28 35 36 37 38 nan nan nan 39 39 38 38 39 37 37 39 38 36 41 47 45 43 40 37 35 36 nan nan nan nan nan
18 15 15 19 22 23 24 25 24 24 25 27 29 30 30 30 29 29 28 26 26 26 24 24 23 24 24 21 18 17 14 15 20 24 26 29 31 29 25 23 22 24 27 25 25 27 26 27 33 36 36 45 35 27 28 33 37 39 38 38 nan nan 38 38 38 39 41 40 40 37 38 41 44 44 44 42 40 34 36 38 40 nan nan nan 40
19 17 17 18 20 23 24 25 24 24 26 28 30 30 30 30 29 29 29 29 29 27 25 25 25 26 25 22 20 19 15 17 22 24 27 30 33 32 27 26 25 27 31 31 33 34 35 34 37 39 43 45 41 39 38 38 38 37 36 35 35 36 37 37 39 43 44 44 44 41 38 nan 42 44 43 42 40 36 37 37 nan nan nan nan 47
21 21 21 19 19 21 23 23 23 25 27 29 29 29 29 29 29 29 29 30 30 27 25 25 26 27 25 22 21 20 17 21 24 26 29 32 36 37 30 26 26 29 34 37 35 33 35 36 38 42 47 47 45 46 45 45 43 40 37 35 35 35 37 nan 40 41 42 43 44 42 nan nan 42 43 45 42 40 40 42 nan nan nan nan nan nan
22 23 22 22 20 20 21 22 23 25 26 28 28 27 28 29 29 29 28 27 27 26 24 25 26 26 26 24 22 20 20 25 27 28 31 34 41 37 32 28 27 29 37 37 33 32 35 37 39 44 48 49 49 50 49 48 47 42 38 36 36 37 38 39 42 42 42 44 44 45 49 48 44 46 nan 44 44 45 nan nan nan nan nan 51 53
22 23 23 24 22 21 21 22 24 25 27 28 26 26 28 28 29 31 29 27 27 26 25 24 24 25 25 24 22 21 22 27 29 31 33 40 42 37 33 29 26 30 33 35 34 34 36 38 40 43 47 49 49 53 54 51 45 40 37 37 nan 37 39 40 43 44 45 45 49 51 51 46 42 43 44 43 42 nan nan nan nan nan nan nan nan
23 24 24 25 25 25 25 26 26 26 28 27 27 27 28 30 31 34 31 29 27 26 25 23 23 24 24 23 23 23 23 29 31 33 39 44 42 38 34 31 26 28 31 34 35 35 37 42 43 44 48 48 52 55 53 49 41 37 36 38 nan nan 40 41 41 40 41 nan nan 49 48 47 45 44 44 nan nan nan nan nan nan nan nan nan nan
25 25 25 28 30 31 31 32 31 31 30 29 30 31 31 32 35 37 34 32 29 29 28 25 24 24 22 21 23 24 26 30 34 37 42 44 41 36 35 32 29 29 33 35 36 37 38 40 44 47 50 51 56 56 53 46 39 38 39 40 42 41 41 44 44 44 nan nan nan 46 46 48 48 nan nan nan nan nan nan nan nan nan nan nan nan
26 26 31 36 36 35 35 35 35 35 34 34 35 36 37 38 38 37 36 35 32 31 30 29 26 25 25 23 25 26 27 32 37 40 43 43 42 37 35 34 31 33 35 36 37 37 40 39 42 50 53 55 56 55 49 46 40 39 40 42 nan nan nan nan nan nan nan nan nan 46 47 48 nan nan nan nan nan nan nan nan nan nan nan 40 nan
33 36 39 39 37 37 38 38 38 38 39 39 40 41 41 40 42 43 38 35 35 34 32 32 30 27 28 28 26 27 30 33 39 41 42 43 41 39 35 33 34 37 37 38 39 40 41 40 41 48 55 56 55 53 49 45 42 42 43 43 43 43 nan nan nan nan nan 45 46 47 47 nan nan nan nan nan nan nan nan nan nan nan nan nan nan
37 40 41 40 40 40 41 40 39 39 41 44 45 43 39 40 44 45 42 39 37 36 35 35 34 32 33 32 29 28 32 33 43 39 43 42 41 39 35 33 37 40 40 39 41 42 42 44 43 51 58 56 54 54 50 46 45 44 43 nan nan nan nan nan nan nan 43 44 45 46 nan nan nan nan nan nan nan nan nan nan nan nan nan nan nan
39 41 41 41 41 42 42 42 41 41 43 45 45 44 44 45 46 47 47 48 46 41 39 40 39 37 36 35 33 32 36 39 44 43 42 43 41 38 36 37 42 42 42 42 43 44 46 45 46 53 57 56 55 53 51 50 48 44 nan nan nan nan nan nan nan nan 44 44 46 nan nan nan nan nan nan nan nan nan nan nan nan nan nan nan nan
42 42 42 41 41 40 41 42 43 44 44 46 44 44 47 48 49 48 47 47 47 44 44 46 45 40 37 38 38 38 41 44 44 45 45 43 42 40 39 41 46 43 43 43 46 48 49 49 49 53 56 58 57 54 52 51 46 50 nan nan nan nan nan nan nan 44 45 45 45 nan nan nan nan nan nan nan nan nan nan nan nan nan nan nan nan
47 45 44 43 42 41 41 42 43 44 46 48 47 45 45 49 50 47 44 43 44 45 46 50 50 45 41 39 41 43 46 47 49 47 49 47 44 43 43 46 47 48 47 46 50 51 52 55 56 56 59 61 58 54 51 nan nan nan nan nan nan nan 43 43 44 45 45 nan nan nan nan nan nan nan nan nan nan nan nan nan nan nan nan nan nan
47 45 45 44 43 43 43 42 44 45 47 49 49 48 47 50 52 51 50 50 49 46 46 50 52 51 47 43 44 46 48 52 54 54 53 51 48 46 47 50 52 51 50 51 55 58 59 59 58 59 63 62 55 49 nan nan nan nan nan 48 43 42 42 43 43 45 nan nan nan nan nan nan nan nan nan nan nan nan nan nan nan nan nan nan nan
43 44 44 44 44 45 45 45 46 48 50 51 51 50 51 52 53 54 56 56 53 50 49 50 50 51 50 48 49 50 50 53 56 57 58 56 55 52 53 54 58 60 56 55 58 58 58 58 55 58 61 62 55 51 nan nan nan nan 46 nan 42 41 41 42 nan nan nan nan nan nan nan nan nan nan nan nan nan nan nan nan nan nan nan nan nan
45 43 43 45 46 47 46 45 46 49 50 51 51 51 52 53 53 53 54 55 55 54 54 51 50 50 51 53 55 56 55 55 55 57 58 61 60 57 57 61 61 57 57 55 56 58 59 61 61 61 64 58 51 nan nan nan 46 47 nan nan nan nan nan nan nan nan nan nan nan nan nan nan nan nan nan nan nan nan nan nan nan nan nan nan nan
48 47 47 47 46 46 47 47 47 47 48 50 51 52 53 53 51 49 49 53 55 57 58 55 51 49 53 58 62 61 59 56 52 55 62 64 64 61 61 64 64 61 59 63 61 60 61 61 60 62 61 55 nan nan nan nan 45 44 nan nan nan nan nan nan nan nan nan nan nan nan nan nan nan nan nan nan nan nan nan nan nan nan nan nan nan
51 51 51 51 51 50 49 48 47 47 48 50 51 51 52 56 53 52 52 50 51 54 60 60 59 59 60 59 61 65 62 59 67 66 66 67 68 67 68 69 68 65 64 66 63 61 61 62 62 62 58 nan nan nan nan nan nan nan nan 40 nan nan nan nan nan nan nan nan nan nan nan nan nan nan nan nan nan nan nan nan nan nan nan nan nan
53 53 51 51 51 51 52 53 54 52 51 50 52 54 57 57 57 54 51 54 54 54 56 58 65 70 71 70 68 72 77 83 80 71 70 72 74 77 73 67 66 68 68 65 61 60 61 63 65 61 nan nan nan nan nan nan nan nan nan nan nan nan nan nan nan nan nan nan nan nan nan nan nan nan nan nan nan nan nan nan nan nan nan nan nan
53 52 51 51 51 53 55 56 56 57 57 57 57 56 58 59 58 61 58 57 61 62 62 66 70 72 73 77 77 78 82 83 80 76 75 77 80 77 69 63 62 64 63 65 61 58 61 66 nan nan nan nan nan nan nan nan nan nan nan nan nan nan nan nan nan nan nan nan nan nan nan nan nan nan nan nan nan nan nan nan nan nan nan nan nan
52 50 50 50 51 54 56 57 57 58 57 58 59 61 60 57 55 58 64 66 66 73 75 78 78 76 79 82 84 82 82 82 79 73 73 79 83 77 67 63 63 61 63 60 58 60 62 nan nan nan nan nan nan nan nan nan nan nan nan nan nan nan nan nan nan nan nan nan nan nan nan nan nan nan nan nan nan nan nan nan nan nan nan nan nan
49 49 51 50 52 53 54 56 57 58 57 58 59 60 59 60 60 61 67 76 78 79 83 89 90 89 89 90 87 87 89 88 83 73 70 74 79 77 70 63 63 58 55 55 58 nan nan nan nan nan nan nan nan nan nan nan nan nan nan nan nan nan nan nan nan nan nan nan nan nan nan nan nan nan nan nan nan nan nan nan nan nan nan nan nan
48 49 51 51 nan 52 52 54 55 54 55 56 58 59 60 61 67 72 71 71 82 91 90 87 92 95 92 90 88 84 83 86 87 84 79 74 74 77 nan nan 59 nan nan nan nan nan nan nan nan nan nan nan nan nan nan nan nan nan nan nan nan nan nan nan nan nan nan nan nan nan nan nan nan nan nan nan nan nan nan nan nan nan nan nan nan
48 48 49 51 nan nan nan nan nan nan nan nan nan nan nan nan nan nan 79 72 75 93 94 87 85 93 95 86 84 82 81 82 87 89 nan nan nan nan nan nan nan nan nan nan nan nan nan nan nan nan nan nan nan nan nan nan nan nan nan nan nan nan nan nan nan nan nan nan nan nan nan nan nan nan nan nan nan nan nan nan nan nan nan nan nan
46 47 48 49 49 nan nan nan nan nan nan nan nan nan nan nan nan nan nan 57 55 56 87 85 87 93 97 85 81 83 85 nan nan nan nan nan nan nan nan nan nan nan nan nan nan nan nan nan nan nan nan nan nan nan nan nan nan nan nan nan nan nan nan nan nan nan nan nan nan nan nan nan nan nan nan nan nan nan nan nan nan nan nan nan nan
46 46 46 46 46 48 50 50 nan nan nan nan nan nan nan nan nan nan nan nan nan nan 52 82 82 82 86 82 79 87 nan nan nan nan nan nan nan nan nan nan nan nan nan nan nan nan nan nan nan nan nan nan nan nan nan nan nan nan nan nan nan nan nan nan nan nan nan nan nan nan nan nan nan nan nan nan nan nan nan nan nan nan nan nan nan
45 46 47 47 45 46 48 49 50 nan nan nan nan nan nan nan nan nan nan nan nan nan nan 68 71 67 72 74 79 87 nan nan nan 65 nan nan 59 58 59 58 nan nan nan nan nan nan nan nan nan nan nan nan nan nan nan nan nan nan nan nan nan nan nan nan nan nan nan nan nan nan nan nan nan nan nan nan nan nan nan nan nan nan nan nan nan
45 43 44 44 43 43 44 46 47 nan nan nan nan nan nan nan nan nan nan 38 48 32 25 42 57 58 61 65 63 69 78 76 67 56 52 54 55 nan nan nan nan nan nan nan nan nan nan nan nan nan nan nan nan nan nan nan nan nan nan nan nan nan nan nan nan nan nan nan nan nan nan nan nan nan nan nan nan nan nan nan nan nan nan nan nan
43 43 44 43 41 40 42 44 44 41 38 38 36 36 32 nan nan 31 31 26 39 39 30 20 27 31 32 42 51 52 48 48 nan nan 47 51 nan nan nan nan nan nan nan nan nan nan nan nan nan nan nan nan nan nan nan nan nan nan nan nan nan nan nan nan nan nan nan nan nan nan nan nan nan nan nan nan nan nan nan nan nan nan nan nan nan
40 42 41 39 39 38 38 40 39 36 33 31 28 24 25 24 20 19 19 20 25 27 22 16 16 17 20 29 33 34 nan nan nan nan nan nan nan nan nan nan nan nan nan nan nan nan nan nan nan nan nan nan nan nan nan nan nan nan nan nan nan nan nan nan nan nan nan nan nan nan nan nan nan nan nan nan nan nan nan nan nan nan nan nan nan
38 40 39 37 37 37 36 35 32 28 27 27 25 23 22 23 21 19 21 21 21 17 13 12 12 14 18 24 29 32 nan nan nan nan nan nan nan nan nan nan nan nan nan nan nan nan nan nan nan nan nan nan nan nan nan nan nan nan nan nan nan nan nan nan nan nan nan nan nan nan nan nan nan nan nan nan nan nan nan nan nan nan nan nan nan
41 39 36 35 33 35 34 32 31 27 25 25 26 25 23 22 20 19 20 23 25 23 19 15 15 15 18 22 26 nan 32 nan nan nan nan nan nan 45 nan nan nan nan nan nan nan nan nan nan nan nan nan nan nan nan nan nan nan nan nan nan nan nan nan nan nan nan nan nan nan nan nan nan nan nan nan nan nan nan nan nan nan nan nan nan nan
41 37 33 32 32 31 30 30 27 26 26 26 24 25 24 22 21 21 20 22 24 26 25 22 20 19 19 21 26 31 34 37 40 43 nan nan nan nan nan nan nan nan nan nan nan nan nan nan nan nan nan nan nan nan nan nan nan nan nan nan nan nan nan nan nan nan nan nan nan nan nan nan nan nan nan nan nan nan nan nan nan nan nan nan nan
39 37 35 35 33 30 28 26 25 23 25 27 29 29 27 26 26 27 27 26 26 27 28 28 27 25 25 27 31 36 37 39 40 41 nan nan nan nan 42 44 nan nan nan nan nan nan nan nan nan nan nan nan nan nan nan nan nan nan nan nan nan nan nan nan nan nan nan nan nan nan nan nan nan nan nan nan nan nan nan nan nan nan nan nan nan
39 37 37 37 35 31 28 26 26 25 26 28 30 30 30 30 31 32 32 31 30 29 30 30 31 32 32 33 34 35 33 34 36 38 39 40 41 43 44 46 46 nan nan nan nan nan nan nan nan nan nan nan nan nan nan nan nan nan nan nan nan nan nan nan nan nan nan nan nan nan nan nan nan nan nan nan nan nan nan nan nan nan nan nan nan
36 35 33 33 34 nan nan nan 31 30 29 28 29 30 31 31 31 32 33 32 30 28 27 28 28 29 30 32 34 33 32 34 36 38 39 40 42 43 45 nan nan nan nan nan nan nan nan nan nan nan nan nan nan nan nan nan nan nan nan nan nan nan nan nan nan nan nan nan nan nan nan nan nan nan nan nan nan nan nan nan nan nan nan nan nan
nan nan nan 32 33 33 nan nan nan nan 29 27 28 29 28 29 29 29 30 29 27 24 22 22 25 26 27 28 29 30 33 36 37 37 38 39 40 40 nan nan nan nan nan nan nan nan nan nan nan nan nan nan nan nan nan nan nan nan nan nan nan nan nan nan nan nan nan nan nan nan nan nan nan nan nan nan nan nan nan nan nan nan nan nan nan
nan nan nan nan nan nan nan nan nan nan nan nan nan 29 28 29 28 25 22 23 24 22 nan nan nan 28 28 28 28 28 28 30 32 34 35 36 36 nan nan nan nan nan nan nan nan nan nan nan nan nan nan nan nan nan nan nan nan nan nan nan nan nan nan nan nan nan nan nan nan nan nan nan nan nan nan nan nan nan nan nan nan nan nan nan nan
nan nan nan nan nan nan nan nan nan nan nan nan nan nan 28 29 29 27 24 23 23 23 nan nan nan 30 27 25 26 25 25 26 28 30 32 33 nan nan nan nan nan nan nan nan nan nan nan nan nan nan nan nan nan nan nan nan nan nan nan nan nan nan nan nan nan nan nan nan nan nan nan nan nan nan nan nan nan nan nan nan nan nan nan nan nan
Wind_Direction
324 325 313 315 313 314 308 297 288 275 272 273 276 277 276 278 279 280 277 282 283 285 286 287 292 296 287 283 287 296 308 314 315 325 332 341 345 350 347 349 354 357 nan nan nan nan nan nan nan nan nan nan nan nan nan nan nan nan nan nan nan nan nan nan nan nan nan nan nan nan nan nan 319 315 309 301 295 294 294 295 293 290 287 285 283
320 318 309 310 322 318 312 303 295 284 282 277 277 274 273 274 275 275 282 282 281 283 285 282 287 296 288 286 291 298 304 314 308 318 333 339 344 339 346 347 353 357 nan nan nan nan nan nan nan nan nan nan nan nan nan nan nan nan nan nan nan nan nan nan nan nan nan nan nan nan nan nan 317 310 311 306 302 294 292 292 291 289 285 280 277
313 304 308 314 323 317 312 312 308 306 302 286 278 274 270 271 272 278 279 276 275 277 279 282 288 294 292 286 288 295 302 306 310 321 332 340 343 343 344 347 353 356 359 nan nan nan nan nan nan nan nan nan nan nan nan nan nan nan nan nan nan nan nan nan nan nan nan nan nan 323 320 315 317 315 311 307 302 296 296 296 292 287 284 280 277
297 302 310 318 319 317 323 322 321 319 313 299 293 278 273 272 273 278 279 274 275 270 273 280 285 291 292 287 287 291 295 299 308 318 332 336 343 347 345 348 353 357 0 1 nan nan nan nan nan nan nan nan nan nan nan nan nan nan nan nan nan nan nan nan nan 336 329 329 nan 325 nan 314 315 nan nan 301 298 297 295 288 288 288 287 287 285
295 308 313 318 320 327 332 330 333 335 331 311 301 284 279 276 277 281 279 278 275 271 270 274 280 287 287 285 284 287 293 299 308 311 322 330 340 342 346 351 355 359 360 1 356 nan nan nan nan nan nan nan nan nan nan nan nan nan nan nan nan nan nan nan nan nan 324 325 320 nan 314 312 312 311 306 302 295 292 288 289 289 290 290 290 nan
301 306 309 316 324 334 334 337 343 342 337 329 319 304 296 291 286 283 285 284 279 276 277 273 275 282 280 277 280 285 288 296 306 314 317 322 332 338 342 350 356 356 356 354 352 349 348 349 nan nan nan nan nan nan nan nan nan nan nan nan 339 336 nan nan 328 324 322 321 317 314 312 313 310 310 302 298 295 291 292 295 296 296 295 293 nan
299 304 310 320 324 332 335 341 338 336 334 330 319 313 310 300 297 295 291 291 285 279 276 277 271 271 269 270 278 283 287 294 301 308 314 320 329 334 341 348 356 355 354 352 348 346 344 342 340 336 336 nan nan nan nan nan nan nan nan 337 336 333 331 329 326 323 322 319 314 314 312 309 307 305 298 297 297 299 299 296 296 295 295 295 293
299 306 308 315 325 333 333 330 331 332 328 326 325 322 316 314 313 305 300 304 298 294 282 275 269 264 263 267 275 277 282 291 298 303 308 316 320 330 340 346 350 355 353 349 346 345 343 342 340 336 335 339 nan nan nan nan nan nan nan nan nan nan 329 326 322 321 321 321 317 314 312 308 304 302 300 300 298 301 301 297 293 292 295 294 292
302 306 307 316 328 326 317 315 320 323 326 327 328 325 321 316 313 312 313 313 305 301 288 278 271 270 266 269 275 276 281 292 293 298 305 314 315 323 337 346 349 352 350 344 342 342 342 344 344 341 339 340 340 339 335 335 nan 333 331 330 329 nan 326 322 321 320 321 321 319 312 310 310 309 307 305 306 309 301 296 295 294 294 292 289 nan
305 305 310 322 319 309 306 308 312 316 322 327 328 327 324 319 315 318 320 318 312 305 293 287 282 284 282 280 277 274 278 282 297 313 313 309 312 319 328 338 344 349 345 338 336 341 345 344 345 353 349 345 342 343 344 344 341 nan 331 329 328 nan 324 322 321 321 321 322 321 315 315 315 312 311 309 300 297 300 298 296 299 296 291 nan nan
303 309 323 322 308 300 299 304 306 313 319 319 319 322 325 323 325 325 320 315 313 308 299 296 294 292 293 286 280 273 275 281 306 308 316 318 311 315 324 330 337 339 331 331 337 343 344 348 347 347 339 336 335 344 345 346 343 342 nan nan nan 325 321 321 322 320 320 323 317 314 317 317 311 304 302 303 306 303 297 295 297 293 293 nan nan
304 314 325 308 297 299 299 299 304 311 311 317 318 317 318 324 331 332 326 320 311 304 305 305 300 296 293 287 279 275 276 290 301 306 313 318 316 312 313 319 324 326 321 325 333 340 346 349 346 336 331 322 319 331 349 350 345 342 339 nan nan nan 325 322 320 317 319 319 318 314 312 314 306 308 308 305 306 300 298 298 nan nan nan nan nan
297 303 301 295 298 297 294 295 301 304 309 311 310 310 316 323 327 328 330 325 316 314 310 301 297 297 299 295 281 273 274 289 298 305 312 315 318 312 305 315 319 319 321 319 323 333 338 335 334 330 320 319 325 332 341 344 344 343 337 333 nan nan 329 330 323 317 313 313 307 309 318 316 315 314 312 306 300 301 295 294 295 nan nan nan 293
284 291 287 290 296 296 293 295 298 301 300 300 303 307 313 321 322 320 319 321 326 323 313 306 299 299 303 296 277 270 275 284 296 304 309 311 312 307 302 315 322 319 321 316 310 329 335 326 326 323 317 325 330 332 337 339 335 330 325 319 318 323 327 326 320 314 313 314 315 321 323 nan 319 314 311 304 301 298 295 294 nan nan nan nan 302
275 278 280 282 284 287 289 291 294 292 292 294 298 304 309 309 311 312 314 318 322 323 317 309 301 300 301 293 275 271 270 288 293 302 305 306 306 302 301 314 317 323 323 314 317 323 323 327 325 320 320 325 329 332 335 336 331 326 319 315 315 314 313 nan 313 313 315 317 320 324 nan nan 313 310 310 307 303 295 293 nan nan nan nan nan nan
268 271 274 275 282 288 292 291 287 285 287 290 295 299 300 301 304 303 303 305 309 311 312 309 308 305 301 293 282 276 273 288 292 298 302 299 298 293 302 314 324 320 313 321 321 320 326 322 320 320 321 325 331 337 338 332 329 325 317 310 309 311 312 305 310 317 319 320 321 317 311 316 315 310 nan 307 302 298 nan nan nan nan nan 301 308
271 277 279 281 283 283 284 284 281 282 284 287 292 295 294 293 288 285 291 297 302 305 306 305 301 301 300 294 288 278 271 283 294 295 295 294 291 294 304 313 322 319 320 317 314 317 320 317 320 320 322 324 329 335 338 337 329 324 316 311 nan 308 306 305 315 321 324 319 306 307 313 318 319 315 311 308 304 nan nan nan nan nan nan nan nan
275 276 279 280 279 278 278 277 276 278 279 286 291 287 284 279 280 279 282 285 289 291 288 288 291 296 302 298 288 277 273 278 291 291 290 294 297 297 302 309 318 315 315 316 312 315 318 324 324 323 323 325 329 333 336 334 328 321 315 309 nan nan 307 309 309 313 310 nan nan 311 315 318 318 316 316 nan nan nan nan nan nan nan nan nan nan
276 276 279 277 275 275 275 277 279 280 282 283 280 277 275 274 271 269 270 271 275 276 277 280 285 289 296 295 284 278 268 272 284 286 289 296 297 293 298 304 308 308 309 310 312 311 311 318 328 324 323 324 327 331 333 328 323 316 315 310 309 311 313 313 313 315 nan nan nan 313 314 316 314 nan nan nan nan nan nan nan nan nan nan nan nan
281 274 267 266 271 278 280 285 286 287 288 287 285 285 280 275 274 269 263 261 263 268 274 276 282 285 286 284 274 273 268 265 274 285 289 296 301 293 292 298 305 307 305 307 308 310 312 312 321 325 325 323 326 329 328 325 319 313 310 310 nan nan nan nan nan nan nan nan nan 316 316 313 nan nan nan nan nan nan nan nan nan nan nan 311 nan
260 259 263 270 276 282 282 287 294 297 296 293 288 287 288 292 290 284 278 269 262 260 267 272 273 275 277 276 273 270 264 264 268 283 286 294 299 297 290 299 301 299 300 305 307 307 307 312 313 318 320 321 325 326 322 323 319 313 312 311 316 311 nan nan nan nan nan 313 313 315 314 nan nan nan nan nan nan nan nan nan nan nan nan nan nan
274 275 281 286 288 289 290 291 295 298 296 290 289 293 292 289 288 292 291 292 285 270 263 265 266 266 268 270 271 268 263 266 264 277 284 290 294 300 290 295 295 294 297 300 300 302 306 306 310 314 320 322 323 320 320 319 317 310 315 nan nan nan nan nan nan nan 312 312 314 315 nan nan nan nan nan nan nan nan nan nan nan nan nan nan nan
277 281 285 288 290 294 294 297 295 292 291 293 296 300 297 294 294 294 297 301 299 284 267 262 261 259 260 264 267 265 261 260 270 269 278 285 291 295 297 290 291 291 293 296 298 298 299 303 307 315 318 320 318 316 315 314 313 311 nan nan nan nan nan nan nan nan 313 315 315 nan nan nan nan nan nan nan nan nan nan nan nan nan nan nan nan
272 276 280 283 286 288 290 291 291 288 289 290 292 293 294 295 296 296 296 297 298 292 275 266 262 259 259 261 264 264 261 259 263 272 272 281 284 291 292 287 288 289 290 292 292 294 295 300 305 313 316 314 312 312 310 311 310 307 nan nan nan nan nan nan nan 313 314 315 317 nan nan nan nan nan nan nan nan nan nan nan nan nan nan nan nan
272 274 277 278 279 279 278 279 283 286 287 289 290 290 292 292 291 291 288 287 290 291 285 276 270 263 258 258 260 261 261 260 258 263 273 276 280 285 286 283 287 286 285 283 287 290 294 300 303 306 306 307 308 306 306 nan nan nan nan nan nan nan 307 309 312 314 316 nan nan nan nan nan nan nan nan nan nan nan nan nan nan nan nan nan nan
273 276 278 279 282 281 281 281 282 286 289 290 293 291 289 289 289 287 283 282 281 282 285 285 278 269 261 255 254 256 259 258 258 258 260 267 270 278 282 281 281 283 282 281 286 288 292 295 298 298 299 302 303 304 nan nan nan nan nan 307 307 306 308 310 312 315 nan nan nan nan nan nan nan nan nan nan nan nan nan nan nan nan nan nan nan
273 276 279 280 279 280 283 282 281 283 285 285 286 285 284 283 283 280 279 281 282 281 285 290 288 280 274 265 258 255 255 257 258 258 259 262 261 264 268 268 272 272 270 273 278 281 286 290 293 294 295 299 299 299 nan nan nan nan 300 nan 305 305 308 312 nan nan nan nan nan nan nan nan nan nan nan nan nan nan nan nan nan nan nan nan nan
264 265 266 268 271 273 276 279 280 279 282 285 286 285 285 285 285 285 285 286 286 284 283 284 286 285 279 274 267 262 257 254 256 257 260 261 260 264 266 267 269 270 270 270 274 279 282 284 285 287 291 293 294 nan nan nan 295 297 nan nan nan nan nan nan nan nan nan nan nan nan nan nan nan nan nan nan nan nan nan nan nan nan nan nan nan
259 260 262 264 265 268 269 271 274 276 277 279 281 282 285 285 284 283 284 281 280 281 280 278 274 269 269 270 270 267 263 259 256 258 264 266 267 263 263 266 267 268 271 275 274 277 280 283 283 286 290 294 nan nan nan nan 293 295 nan nan nan nan nan nan nan nan nan nan nan nan nan nan nan nan nan nan nan nan nan nan nan nan nan nan nan
262 262 262 261 261 261 262 265 268 271 273 275 276 275 272 266 270 276 277 282 287 286 281 278 277 270 267 266 269 272 271 265 258 260 262 266 269 269 267 269 272 271 275 278 276 278 281 282 284 287 291 nan nan nan nan nan nan nan nan 301 nan nan nan nan nan nan nan nan nan nan nan nan nan nan nan nan nan nan nan nan nan nan nan nan nan
264 263 262 262 261 262 263 262 262 263 266 268 272 273 273 271 266 262 267 276 280 280 279 279 278 277 275 269 261 254 259 264 267 260 257 258 259 259 262 269 274 275 275 272 272 276 280 281 284 288 nan nan nan nan nan nan nan nan nan nan nan nan nan nan nan nan nan nan nan nan nan nan nan nan nan nan nan nan nan nan nan nan nan nan nan
265 264 264 265 263 263 264 264 264 263 262 261 262 265 269 271 268 264 262 274 279 278 276 271 271 272 273 271 266 261 267 271 268 263 258 256 256 258 263 271 276 276 274 272 272 274 276 280 nan nan nan nan nan nan nan nan nan nan nan nan nan nan nan nan nan nan nan nan nan nan nan nan nan nan nan nan nan nan nan nan nan nan nan nan nan
264 263 264 265 265 265 265 265 265 265 264 264 263 262 265 269 273 272 262 259 272 277 273 272 272 270 267 267 270 268 266 266 267 262 256 255 256 258 263 270 275 277 273 270 274 275 275 nan nan nan nan nan nan nan nan nan nan nan nan nan nan nan nan nan nan nan nan nan nan nan nan nan nan nan nan nan nan nan nan nan nan nan nan nan nan
265 266 265 264 264 264 265 267 267 268 269 269 268 269 271 273 271 268 269 267 259 256 264 268 264 260 261 263 262 265 267 269 270 267 260 255 254 256 260 265 273 276 273 273 275 nan nan nan nan nan nan nan nan nan nan nan nan nan nan nan nan nan nan nan nan nan nan nan nan nan nan nan nan nan nan nan nan nan nan nan nan nan nan nan nan
264 260 256 259 nan 264 265 267 267 267 270 272 273 272 271 271 274 277 278 278 274 266 256 255 258 261 259 258 260 264 265 267 271 272 267 261 257 253 nan nan 262 nan nan nan nan nan nan nan nan nan nan nan nan nan nan nan nan nan nan nan nan nan nan nan nan nan nan nan nan nan nan nan nan nan nan nan nan nan nan nan nan nan nan nan nan
261 260 259 258 nan nan nan nan nan nan nan nan nan nan nan nan nan nan 266 264 275 270 254 249 250 255 257 259 261 262 264 263 264 265 nan nan nan nan nan nan nan nan nan nan nan nan nan nan nan nan nan nan nan nan nan nan nan nan nan nan nan nan nan nan nan nan nan nan nan nan nan nan nan nan nan nan nan nan nan nan nan nan nan nan nan
260 261 262 263 266 nan nan nan nan nan nan nan nan nan nan nan nan nan nan 254 260 259 254 249 244 235 243 244 249 252 256 nan nan nan nan nan nan nan nan nan nan nan nan nan nan nan nan nan nan nan nan nan nan nan nan nan nan nan nan nan nan nan nan nan nan nan nan nan nan nan nan nan nan nan nan nan nan nan nan nan nan nan nan nan nan
259 262 264 265 268 271 272 272 nan nan nan nan nan nan nan nan nan nan nan nan nan nan 229 247 245 241 236 238 243 243 nan nan nan nan nan nan nan nan nan nan nan nan nan nan nan nan nan nan nan nan nan nan nan nan nan nan nan nan nan nan nan nan nan nan nan nan nan nan nan nan nan nan nan nan nan nan nan nan nan nan nan nan nan nan nan
262 263 263 264 268 272 272 273 274 nan nan nan nan nan nan nan nan nan nan nan nan nan nan 211 224 225 225 229 236 242 nan nan nan 259 nan nan 251 258 263 266 nan nan nan nan nan nan nan nan nan nan nan nan nan nan nan nan nan nan nan nan nan nan nan nan nan nan nan nan nan nan nan nan nan nan nan nan nan nan nan nan nan nan nan nan nan
264 266 267 266 270 271 271 273 278 nan nan nan nan nan nan nan nan nan nan 241 220 214 199 195 202 212 223 231 239 245 246 249 255 255 250 247 252 nan nan nan nan nan nan nan nan nan nan nan nan nan nan nan nan nan nan nan nan nan nan nan nan nan nan nan nan nan nan nan nan nan nan nan nan nan nan nan nan nan nan nan nan nan nan nan nan
263 264 266 267 266 269 270 271 275 278 279 284 287 286 289 nan nan 296 304 261 234 249 272 250 217 220 226 233 238 245 247 248 nan nan 247 250 nan nan nan nan nan nan nan nan nan nan nan nan nan nan nan nan nan nan nan nan nan nan nan nan nan nan nan nan nan nan nan nan nan nan nan nan nan nan nan nan nan nan nan nan nan nan nan nan nan
262 263 263 262 262 263 265 267 273 278 279 281 281 277 283 284 272 264 268 260 246 251 260 250 235 227 221 228 231 235 nan nan nan nan nan nan nan nan nan nan nan nan nan nan nan nan nan nan nan nan nan nan nan nan nan nan nan nan nan nan nan nan nan nan nan nan nan nan nan nan nan nan nan nan nan nan nan nan nan nan nan nan nan nan nan
263 264 264 264 261 262 264 263 264 269 272 274 275 278 276 278 275 255 244 248 253 253 250 244 234 227 226 223 238 242 nan nan nan nan nan nan nan nan nan nan nan nan nan nan nan nan nan nan nan nan nan nan nan nan nan nan nan nan nan nan nan nan nan nan nan nan nan nan nan nan nan nan nan nan nan nan nan nan nan nan nan nan nan nan nan
259 255 256 258 258 258 259 260 262 264 265 266 272 276 275 275 273 268 260 258 260 264 266 260 253 246 237 229 235 nan 247 nan nan nan nan nan nan 263 nan nan nan nan nan nan nan nan nan nan nan nan nan nan nan nan nan nan nan nan nan nan nan nan nan nan nan nan nan nan nan nan nan nan nan nan nan nan nan nan nan nan nan nan nan nan nan
256 252 248 249 249 250 252 253 254 262 269 269 266 267 270 269 271 274 275 273 269 268 269 268 267 264 260 256 253 253 251 252 256 260 nan nan nan nan nan nan nan nan nan nan nan nan nan nan nan nan nan nan nan nan nan nan nan nan nan nan nan nan nan nan nan nan nan nan nan nan nan nan nan nan nan nan nan nan nan nan nan nan nan nan nan
247 245 243 244 243 241 244 251 258 265 273 279 281 278 275 274 279 281 282 279 276 275 275 276 277 276 267 262 263 263 261 260 260 260 nan nan nan nan 257 262 nan nan nan nan nan nan nan nan nan nan nan nan nan nan nan nan nan nan nan nan nan nan nan nan nan nan nan nan nan nan nan nan nan nan nan nan nan nan nan nan nan nan nan nan nan
242 241 239 239 241 243 244 247 254 263 270 273 276 279 283 286 289 293 293 291 287 283 280 278 278 274 271 269 259 257 260 261 260 259 260 258 255 255 259 263 264 nan nan nan nan nan nan nan nan nan nan nan nan nan nan nan nan nan nan nan nan nan nan nan nan nan nan nan nan nan nan nan nan nan nan nan nan nan nan nan nan nan nan nan nan
238 240 240 241 242 nan nan nan 254 260 266 270 274 280 283 284 287 290 291 292 291 289 284 280 277 273 270 264 259 254 250 250 252 254 254 254 255 257 259 nan nan nan nan nan nan nan nan nan nan nan nan nan nan nan nan nan nan nan nan nan nan nan nan nan nan nan nan nan nan nan nan nan nan nan nan nan nan nan nan nan nan nan nan nan nan
nan nan nan 249 251 252 nan nan nan nan 266 266 266 269 270 273 277 279 283 286 286 281 276 275 277 273 266 260 253 248 249 250 252 253 253 254 255 256 nan nan nan nan nan nan nan nan nan nan nan nan nan nan nan nan nan nan nan nan nan nan nan nan nan nan nan nan nan nan nan nan nan nan nan nan nan nan nan nan nan nan nan nan nan nan nan
nan nan nan nan nan nan nan nan nan nan nan nan nan 263 262 264 267 268 268 270 272 269 nan nan nan 266 263 259 255 252 253 254 254 252 252 253 252 nan nan nan nan nan nan nan nan nan nan nan nan nan nan nan nan nan nan nan nan nan nan nan nan nan nan nan nan nan nan nan nan nan nan nan nan nan nan nan nan nan nan nan nan nan nan nan nan
nan nan nan nan nan nan nan nan nan nan nan nan nan nan 254 253 254 255 256 256 257 253 nan nan nan 250 248 253 258 260 258 256 253 252 253 252 nan nan nan nan nan nan nan nan nan nan nan nan nan nan nan nan nan nan nan nan nan nan nan nan nan nan nan nan nan nan nan nan nan nan nan nan nan nan nan nan nan nan nan nan nan nan nan nan nan